Location: Unspecified
(43.4354°N, 0.0000°E)
Time: 01:10:31
(UTC+00:00)

Vanguard 1 - Visible Passes

Search period start: 18 June 2019 00:00
Search period end: 28 June 2019 00:00
Orbit: 654 x 3829 km, 34.2° (Epoch: 17 June)

Date Brightness Start Highest point End Pass type
(mag) Time Alt. Az. Time Alt. Az. Time Alt. Az.
18 Jun 12.7 02:10:47 17° SSW 02:19:39 27° SSE 02:28:30 10° ESE visible
19 Jun 13.4 00:17:13 14° SE 00:17:56 14° SE 00:25:03 10° ESE visible
19 Jun 12.5 02:29:53 17° SSW 02:40:48 33° SSE 02:49:58 10° E visible
20 Jun 13.2 00:36:14 19° SSE 00:39:04 20° SSE 00:48:32 10° ESE visible
20 Jun 12.3 02:48:52 15° SW 03:01:57 39° SSE 03:11:12 10° E visible
21 Jun 13.0 00:55:08 23° S 01:00:13 26° SSE 01:10:49 10° E visible
21 Jun 12.1 03:07:45 11° SW 03:23:05 45° SSE 03:32:16 10° E visible
21 Jun 13.6 23:01:17 12° SE 23:01:17 12° SE 23:04:03 10° ESE visible
22 Jun 12.8 01:13:54 25° S 01:21:22 33° SSE 01:32:32 10° E visible
22 Jun 12.0 03:28:00 10° WSW 03:44:12 49° S 03:53:14 10° E visible
22 Jun 13.4 23:19:55 18° SE 23:19:55 18° SE 23:29:15 10° ESE visible
23 Jun 12.6 01:32:31 24° SSW 01:42:32 39° SSE 01:53:57 10° E visible
23 Jun 13.2 23:38:21 24° SSE 23:40:11 24° SE 23:52:12 10° E visible
24 Jun 12.4 01:50:56 21° SW 02:03:42 45° SSE 02:15:09 10° E visible
24 Jun 13.0 23:56:33 28° SSE 00:01:16 30° SSE 00:14:20 10° E visible
25 Jun 12.3 02:09:05 16° SW 02:24:53 50° SSE 02:36:13 10° E visible
25 Jun 13.6 22:01:52 14° SE 22:01:52 14° SE 22:07:58 10° ESE visible
26 Jun 12.9 00:14:22 29° S 00:22:22 37° SSE 00:35:59 10° E visible
26 Jun 12.2 02:26:53 10° WSW 02:46:03 55° S 02:57:13 10° E visible
26 Jun 13.4 22:19:09 21° SE 22:19:47 21° SE 22:32:14 10° E visible
27 Jun 12.7 00:31:35 26° SSW 00:43:30 43° SSE 00:57:23 10° E visible
27 Jun 12.1 02:47:59 10° WSW 03:07:14 58° S 03:18:09 10° E visible
27 Jun 13.2 22:23:34 10° S 22:40:41 27° SE 22:55:01 10° E visible
